Flag for China Weather past 2 weeks in Langfang, Hebei, China

Now
27 °F

Passing clouds.


Feels Like: 20 °F
Forecast: 20 / 37 °F
Wind: 6 mph from West

Location: Beijing Airport

Current Time: Dec 21, 2014 at 9:37:54 AM

Latest Report: Dec 21, 2014 at 9:00 AM


Visibility: N/A

Pressure: 30.42 "Hg

Humidity: 28%

Dew point: -2 °F

Location of LangfangLocation

Historic Weather in Langfang — Graph

°F

Langfang temperature yesterday

Maximum temperature yesterday: 36 °F (at 3:00 PM)
Minimum temperature yesterday: 19 °F (at 6:00 AM)
Average temperature yesterday: 29 °F

Past Weeks' High & Low Weather Summary

 TemperatureHumidityPressure
High43 °F (Dec 14, 12:30 PM)100% (Dec 10, 5:30 AM)30.63 "Hg (Dec 10, 5:30 AM)
Low12 °F (Dec 17, 7:30 AM)14% (Dec 6, 1:30 PM)30.18 "Hg (Dec 19, 2:00 AM)
Average29 °F40%30.39 "Hg
* Reported Dec 6 8:00 AM — Dec 21 8:30 AM, Langfang, Weather by CustomWeather, © 2014

Note: Actual official high and low records may vary slightly from our data, if they occured in-between our weather recording intervals... More about our weather records

Advertising

Langfang weather history for previous 24 hours

 ConditionsComfort  
Time TempWeatherWind HumidityBarometerVisibility
8:30 AM
Dec 21
25 °FPassing clouds.8 mph30%30.42 "HgN/A
8:00 AM23 °FPassing clouds.6 mph33%30.42 "HgN/A
7:30 AM23 °FPassing clouds.8 mph33%30.42 "HgN/A
7:00 AM23 °FPassing clouds.8 mph33%30.42 "HgN/A
6:30 AM23 °FClear.8 mph30%30.42 "Hg10 mi
6:00 AM23 °FClear.10 mph30%30.42 "Hg10 mi
5:30 AM23 °FClear.17 mph33%30.42 "Hg10 mi
4:30 AM23 °FClear.13 mph33%30.45 "Hg10 mi
4:00 AM23 °FPassing clouds.13 mph30%30.45 "HgN/A
3:30 AM25 °FClear.20 mph28%30.45 "Hg10 mi
3:00 AM25 °FClear.22 mph28%30.48 "Hg10 mi
2:30 AM25 °FClear.13 mph28%30.48 "Hg10 mi
2:00 AM25 °FClear.22 mph28%30.48 "Hg10 mi
1:30 AM25 °FClear.20 mph28%30.48 "Hg10 mi
1:00 AM25 °FClear.17 mph28%30.48 "Hg10 mi
12:30 AM27 °FClear.20 mph28%30.48 "Hg10 mi
12:00 AM27 °FClear.22 mph26%30.48 "Hg10 mi
11:30 PM
Dec 20
27 °FClear.22 mph28%30.48 "Hg10 mi
11:00 PM27 °FClear.22 mph28%30.48 "Hg10 mi
10:30 PM27 °FClear.17 mph28%30.48 "Hg10 mi
10:00 PM27 °FClear.17 mph28%30.48 "Hg10 mi
9:30 PM28 °FClear.15 mph26%30.45 "Hg10 mi
9:00 PM28 °FClear.15 mph26%30.45 "Hg10 mi
8:30 PM28 °FClear.13 mph26%30.45 "Hg10 mi
8:00 PM30 °FClear.8 mph26%30.42 "Hg10 mi
7:30 PM32 °FClear.10 mph23%30.42 "Hg10 mi
7:00 PM32 °FPassing clouds.8 mph25%30.42 "HgN/A
6:30 PM32 °FPassing clouds.8 mph21%30.39 "HgN/A
6:00 PM32 °FClear.8 mph23%30.39 "Hg10 mi
5:30 PM34 °FPassing clouds.10 mph19%30.36 "HgN/A
5:00 PM34 °FClear.10 mph19%30.36 "Hg10 mi
4:30 PM34 °FPassing clouds.15 mph18%30.36 "HgN/A
4:00 PM34 °FPassing clouds.15 mph18%30.36 "HgN/A
3:30 PM36 °FPassing clouds.15 mph16%30.36 "HgN/A
3:00 PM36 °FPassing clouds.13 mph18%30.36 "HgN/A
2:30 PM34 °FSunny.13 mph19%30.36 "Hg10 mi
2:00 PM34 °FPassing clouds.15 mph19%30.39 "HgN/A
1:30 PM34 °FSunny.13 mph19%30.39 "Hg10 mi
1:00 PM34 °FPassing clouds.10 mph21%30.39 "HgN/A
12:30 PM34 °FPassing clouds.10 mph21%30.39 "HgN/A
12:00 PM32 °FSunny.13 mph25%30.42 "Hg10 mi
11:30 AM32 °FSunny.10 mph27%30.45 "Hg10 mi
11:00 AM30 °FSunny.13 mph29%30.45 "Hg10 mi
10:30 AM28 °FSunny.13 mph29%30.45 "Hg10 mi
10:00 AM28 °FSunny.10 mph29%30.45 "Hg10 mi
9:30 AM28 °FSunny.8 mph31%30.45 "Hg10 mi
9:00 AM25 °FPassing clouds.6 mph36%30.45 "HgN/A
Weather by CustomWeather, © 2014

See weather overviewHow to use our weather pages